Temperature
15 15 15 16 16 16 18 20 21 21 21 20 19 20 20 20 19 17 15 15 15 15 15 15 15 15 15 15 15 16 15 15 15 15 15 16 15 15 16 16 16 16 16 16 16 15 15 16 15
15 15 16 17 16 17 18 19 20 19 19 19 19 19 20 19 18 16 15 15 15 15 15 15 15 15 15 15 15 15 15 15 15 15 15 15 15 15 15 15 16 15 15 16 16 15 15 15 15
14 15 16 16 17 17 18 19 18 19 18 18 19 19 19 18 16 15 15 15 15 14 15 15 15 15 15 15 15 15 15 15 15 15 15 15 15 15 15 15 15 15 15 15 15 15 15 15 15
14 15 17 16 17 18 19 18 18 18 18 18 18 18 17 16 15 15 15 15 14 14 14 14 14 14 14 15 15 15 15 15 15 15 15 15 15 15 15 15 15 15 15 15 15 15 15 15 15
14 16 16 16 17 18 18 18 17 17 17 18 18 17 16 15 15 15 14 14 14 14 14 14 14 14 14 14 14 15 15 15 15 15 15 15 15 15 15 15 15 15 15 15 15 15 15 15 15
15 16 15 15 17 18 18 17 17 17 17 17 17 16 15 15 14 14 14 14 13 13 13 13 14 14 14 14 14 14 14 14 15 15 15 15 15 15 15 15 15 15 15 15 15 14 14 14 14
15 15 15 16 16 17 17 17 16 16 16 16 16 15 15 14 14 14 13 13 13 13 13 13 13 13 14 14 14 14 14 14 14 14 14 14 14 14 14 14 14 15 15 14 14 14 14 14 14
14 14 15 16 16 16 16 16 16 15 15 15 15 15 14 13 13 13 13 13 12 12 12 13 13 13 13 14 14 14 14 14 14 14 14 14 14 14 14 14 14 14 14 14 14 14 14 14 14
14 13 14 15 15 15 15 15 15 15 14 14 14 14 13 13 13 12 12 12 12 12 12 12 12 13 13 13 13 13 14 14 14 14 14 14 14 14 14 14 14 14 14 14 14 14 14 14 14
14 12 14 15 14 14 14 14 14 14 14 14 14 13 13 13 12 12 12 11 11 12 12 12 12 12 12 13 13 13 13 13 13 13 13 13 13 13 13 14 13 13 14 14 14 13 13 13 13
14 13 14 14 14 13 13 13 13 13 12 13 13 13 12 12 12 11 11 11 11 11 11 11 12 12 12 12 12 13 13 13 13 13 13 13 13 13 13 13 13 13 13 13 13 13 13 13 13
14 14 14 13 13 13 12 12 12 12 12 12 12 12 12 12 11 11 11 11 11 11 11 11 11 12 12 12 12 12 12 13 12 13 12 12 12 12 13 13 13 13 13 13 13 13 12 12 12
13 13 13 13 12 12 12 12 12 12 12 12 12 12 11 11 11 11 11 11 11 11 11 11 11 11 11 12 11 12 12 12 12 12 12 12 12 12 12 12 12 12 12 13 13 12 12 12 12
13 13 13 13 12 12 12 12 12 12 12 12 12 12 11 11 11 11 10 10 10 10 10 10 11 11 11 11 11 11 12 12 12 12 12 12 12 12 12 12 12 12 12 12 12 12 12 12 11
12 12 12 13 13 13 12 11 12 13 12 12 12 12 11 11 11 10 10 10 10 10 10 10 10 10 11 11 11 11 11 12 12 12 12 12 12 12 12 12 12 12 12 12 12 12 12 11 11
13 12 12 13 13 13 11 10 13 13 13 12 12 12 11 11 11 10 10 10 10 10 10 10 10 10 10 10 11 11 11 11 11 12 12 12 12 12 12 12 12 12 12 12 12 12 11 11 11
13 12 12 13 13 13 12 11 12 13 13 12 12 12 11 11 10 10 10 10 10 9 9 9 9 9 10 10 10 10 10 11 11 11 11 11 11 11 11 12 12 12 12 12 11 11 11 11 11
12 12 12 13 13 13 12 11 12 13 13 12 12 12 11 11 10 10 10 9 9 9 9 9 9 9 9 9 10 10 10 10 10 11 11 11 11 11 11 11 11 11 11 11 11 11 11 11 10
12 12 12 12 13 12 11 11 12 13 12 12 12 11 11 11 10 10 9 9 9 9 9 8 8 9 9 9 9 9 10 10 10 10 11 11 11 11 11 11 11 11 11 11 11 11 10 10 10
12 11 12 12 13 12 11 11 12 12 12 12 12 11 11 10 10 10 9 9 9 8 8 8 8 8 8 8 9 9 9 9 10 10 10 10 10 10 10 10 11 11 11 10 10 10 10 10 10
12 11 11 11 11 12 11 11 12 12 13 12 12 11 10 10 10 9 9 8 8 8 8 8 8 8 8 8 8 8 8 9 9 9 9 10 10 10 10 10 10 10 10 10 10 10 10 10 9
11 12 11 11 10 10 11 9 11 12 12 12 11 11 10 10 9 9 9 8 8 8 8 8 8 8 8 8 8 8 8 8 8 9 9 9 9 10 9 10 10 10 10 10 10 9 9 9 9
11 11 11 11 10 10 11 10 10 12 11 11 11 11 10 10 9 9 9 8 8 8 8 8 7 8 8 8 7 7 7 8 8 8 8 9 9 9 9 9 9 9 9 9 9 9 9 9 9
11 11 11 10 9 9 10 10 10 11 11 11 11 11 10 9 9 8 8 8 8 8 7 7 7 7 7 7 7 7 7 7 8 8 8 8 8 9 9 9 9 9 9 9 9 9 8 8 8
11 9 9 9 9 10 11 10 10 11 11 11 10 10 10 9 9 8 8 8 8 7 7 7 7 7 7 7 7 7 7 7 8 8 8 8 8 8 8 8 8 8 8 8 8 8 8 8 8
10 10 9 9 10 10 11 9 10 12 11 11 11 10 9 9 8 8 8 8 7 7 7 7 7 7 7 7 7 7 7 7 7 7 8 8 8 8 8 8 8 8 8 8 8 8 8 8 8
10 9 10 9 9 9 10 11 11 11 10 10 10 10 9 9 8 8 8 8 7 7 7 7 7 7 7 7 7 7 7 7 7 7 7 7 7 8 8 8 8 8 8 7 7 8 8 7 7
10 10 9 8 9 9 11 11 9 10 10 10 9 9 9 9 8 8 8 7 7 7 7 7 7 6 6 6 7 7 7 7 7 7 7 7 7 7 7 7 7 7 7 7 7 7 7 7 7
9 9 9 9 9 9 9 10 11 10 10 9 9 9 9 8 8 7 7 7 7 7 7 7 7 6 6 7 6 7 7 7 7 7 7 7 7 7 7 7 7 7 7 7 7 7 6 6 6
10 10 9 8 8 9 8 9 11 10 10 10 10 9 9 8 8 7 7 7 7 7 7 6 6 6 6 7 7 6 6 6 6 7 7 7 7 7 7 7 7 7 7 6 6 6 6 6 6
Wind_Speed
17 13 6 3 3 4 5 4 4 3 4 6 7 6 7 6 4 3 2 5 5 4 6 6 6 5 4 5 6 7 8 8 9 9 9 9 9 9 9 9 9 9 9 10 10 10 11 11 11
14 9 4 3 4 5 4 3 2 3 5 6 5 4 5 2 4 4 3 5 4 4 5 5 6 5 4 5 6 6 7 8 9 9 9 9 9 9 9 9 10 9 10 10 10 10 10 10 10
12 8 3 3 4 4 2 4 5 5 5 3 3 4 4 3 5 4 4 5 4 4 5 5 6 4 4 5 5 6 7 8 9 9 9 9 9 9 9 9 10 10 10 10 10 10 10 10 10
5 3 3 3 6 4 3 3 5 6 3 1 2 3 2 5 4 5 6 5 4 4 4 5 5 5 4 4 5 6 7 8 9 9 10 9 9 9 9 9 9 10 10 10 10 10 10 10 10
4 3 3 4 5 3 2 4 5 5 5 3 3 3 3 3 6 7 5 4 3 3 3 4 5 5 4 4 5 6 7 8 9 9 10 10 10 10 10 10 10 10 10 10 10 10 10 10 9
3 3 3 4 4 1 2 3 3 4 6 5 4 4 3 3 6 5 4 3 2 2 2 3 5 5 5 4 5 6 7 8 9 9 10 11 11 10 10 10 10 10 10 10 10 10 10 10 9
3 2 3 5 4 2 3 4 4 5 6 6 4 4 2 3 6 5 4 3 2 3 2 2 4 5 5 5 5 5 7 8 9 9 10 11 11 11 11 10 10 11 10 10 10 10 10 10 9
4 3 3 3 3 2 4 3 3 4 6 6 4 3 2 3 4 4 4 4 2 2 2 1 2 4 4 5 5 5 6 7 9 9 9 10 11 11 11 10 10 11 11 10 10 10 10 9 8
3 2 2 3 3 3 5 5 5 4 4 5 4 5 4 3 3 3 3 3 2 1 2 1 1 2 4 5 5 6 7 8 9 9 10 10 10 10 9 10 11 11 11 10 10 10 10 9 7
2 1 2 4 5 5 6 7 7 5 6 6 5 4 2 2 2 2 2 2 2 1 0 2 1 1 3 4 5 5 6 7 8 8 8 8 8 9 9 11 11 11 10 10 10 10 9 7 6
2 2 3 4 5 5 6 7 7 8 8 7 7 6 4 3 3 3 3 2 2 1 0 1 2 2 3 2 3 3 4 5 6 8 7 8 8 8 9 8 8 9 9 7 7 7 6 5 5
2 3 4 4 4 5 6 6 7 8 9 7 6 6 5 5 4 3 3 3 2 1 0 1 2 2 3 2 2 3 3 3 4 6 7 6 5 4 5 5 7 7 6 6 5 4 5 6 6
3 3 4 5 5 7 8 8 9 10 9 8 7 6 6 6 4 3 3 3 2 1 1 1 1 3 2 3 1 2 3 3 4 5 6 7 4 4 3 4 5 5 6 4 3 3 4 4 5
3 5 7 6 7 6 7 9 8 8 5 6 6 5 5 5 4 4 3 3 2 1 1 1 1 2 3 3 2 2 3 4 4 4 5 7 6 4 3 4 4 4 5 4 3 4 4 4 4
5 6 7 5 5 2 4 8 7 7 5 6 6 5 5 5 5 4 3 2 2 1 1 1 2 2 3 3 3 3 4 3 3 4 5 6 7 5 4 4 3 4 5 4 5 5 5 4 4
5 4 3 2 2 2 2 7 5 2 3 6 5 4 4 4 3 2 1 1 1 1 1 2 1 2 3 3 4 3 4 3 3 4 5 6 7 6 5 4 3 5 5 5 4 4 4 4 4
3 3 5 3 2 2 4 7 7 4 4 5 5 4 3 3 2 1 1 1 1 2 2 3 2 2 3 4 4 4 4 4 4 4 4 6 6 6 5 4 4 6 4 3 3 4 4 4 4
4 6 6 6 2 4 6 9 8 4 3 5 4 3 3 2 1 1 1 2 2 3 3 3 4 3 3 3 4 4 4 4 4 4 4 6 5 6 5 4 5 5 4 3 4 5 4 4 4
7 8 9 7 5 5 7 8 7 4 3 3 3 2 2 1 1 2 2 2 3 3 4 4 4 4 4 2 3 3 3 3 4 3 5 5 6 5 4 3 4 4 4 4 5 5 6 4 3
8 9 8 6 4 6 7 8 6 1 2 2 2 2 2 1 1 2 3 3 3 3 4 5 4 4 4 2 2 2 3 3 3 3 4 5 5 5 4 3 3 3 3 4 5 5 3 2 2
7 6 7 8 9 7 6 6 3 2 1 1 0 0 1 1 1 1 3 3 3 3 4 4 4 5 5 4 3 3 3 3 3 3 3 4 5 5 4 3 3 3 3 4 4 4 4 3 2
6 3 6 8 7 4 3 4 3 1 1 1 1 1 1 1 1 1 3 3 3 3 3 5 4 5 5 4 4 4 3 3 2 3 3 4 5 5 4 4 4 3 3 4 3 3 3 4 2
4 5 7 7 6 6 5 4 4 1 1 0 1 1 2 1 1 1 3 3 4 4 4 4 4 5 5 5 4 4 3 3 3 3 4 4 3 4 4 4 4 3 3 3 3 3 3 2 2
5 6 7 5 3 4 4 3 4 1 1 1 1 2 2 1 1 1 2 4 3 4 4 4 4 5 5 5 4 4 4 5 5 4 4 3 2 3 3 4 4 3 3 3 3 3 3 2 2
3 3 2 2 3 4 2 3 4 1 4 3 2 1 1 1 1 1 3 4 4 4 4 4 4 4 5 5 5 4 4 4 5 4 4 4 3 3 3 3 3 3 3 3 3 3 3 3 3
4 3 1 3 3 3 1 4 3 4 5 4 3 2 2 2 2 2 2 4 4 4 4 4 4 4 4 5 4 4 4 3 3 4 4 4 3 3 3 3 3 4 4 3 3 2 2 2 3
2 2 2 3 4 4 5 3 2 3 4 3 2 2 2 2 2 2 2 3 4 4 4 4 5 4 4 4 4 4 3 4 4 4 3 3 3 4 4 4 3 4 4 3 3 3 3 3 3
4 3 1 2 3 4 6 4 3 3 2 2 1 1 1 2 2 2 2 3 3 3 3 3 4 4 3 4 4 3 3 4 4 4 4 4 4 4 5 4 4 4 4 4 3 3 3 4 3
4 4 4 4 4 3 4 3 1 3 3 2 2 2 2 2 2 2 2 2 3 3 3 3 3 4 3 3 3 3 3 3 4 4 4 4 4 5 5 5 5 4 4 4 4 3 4 4 3
4 4 4 3 4 4 4 4 3 5 4 3 2 2 2 2 2 2 2 2 2 2 2 3 4 4 4 3 3 3 3 3 4 4 4 4 4 5 5 5 5 5 5 5 5 5 4 5 5
Wind_Direction
308 285 262 256 243 229 238 244 280 335 4 26 9 347 337 345 2 63 104 46 51 79 110 120 114 110 128 133 139 141 144 147 143 142 140 137 137 138 134 131 128 125 120 116 113 110 109 105 102
301 295 269 242 242 235 236 239 266 16 27 24 357 333 315 360 50 79 60 33 44 74 105 119 120 117 130 137 139 147 151 151 148 144 144 142 139 140 138 136 132 127 121 117 115 112 112 110 108
284 275 261 240 238 251 282 30 29 28 35 20 340 325 324 2 37 44 37 27 32 62 95 115 125 125 134 148 147 152 156 156 152 148 148 145 145 142 140 137 133 130 124 120 118 117 117 114 111
290 255 244 251 257 276 326 37 25 349 3 23 326 307 351 33 30 29 31 27 28 61 82 125 138 133 139 155 159 158 159 161 156 154 151 149 145 143 138 137 133 130 128 125 123 122 120 116 111
251 263 238 236 250 275 360 33 7 331 318 328 310 296 313 13 51 42 31 24 27 61 73 141 149 144 148 160 168 166 162 164 162 161 157 153 146 142 138 135 134 133 131 129 128 124 122 118 112
273 254 254 250 259 281 56 37 340 306 304 314 314 304 297 46 51 35 17 0 21 68 70 138 157 153 152 158 167 170 165 163 165 162 161 155 148 143 139 135 137 137 134 132 128 124 120 117 113
313 298 278 291 300 323 19 23 340 330 314 308 319 301 272 40 42 21 5 350 17 64 79 108 153 149 147 153 155 159 163 161 159 157 156 152 148 145 140 136 137 134 132 132 129 126 121 113 110
321 305 283 291 299 323 23 359 349 332 306 323 330 291 287 22 33 19 360 354 8 69 76 98 146 145 139 139 136 137 140 147 150 148 144 144 144 141 138 135 135 133 129 127 128 125 119 116 114
298 277 289 328 341 349 13 340 329 312 282 291 292 288 298 335 12 6 348 349 344 22 87 76 118 126 136 142 141 134 131 135 140 146 143 143 141 134 126 128 130 130 129 129 129 127 126 124 125
294 287 337 2 355 342 340 329 322 303 287 286 290 306 317 334 335 307 300 294 304 295 105 117 93 101 115 139 139 138 140 143 144 142 158 160 140 132 127 126 129 130 128 131 136 138 138 137 139
305 296 332 334 346 336 316 305 307 297 284 288 300 318 319 312 298 291 282 274 275 267 158 102 101 83 92 110 133 134 136 145 144 151 155 133 124 125 129 129 131 133 135 134 142 151 156 135 124
278 291 304 308 323 308 297 297 297 284 281 295 297 302 302 295 279 276 287 290 280 280 181 115 115 109 102 101 117 123 117 121 122 134 135 133 128 125 136 140 147 149 142 139 152 153 135 127 122
259 284 293 292 287 280 281 278 277 276 278 283 282 278 272 272 273 271 272 277 273 242 215 145 128 123 113 110 142 135 117 114 118 120 126 123 126 132 126 121 128 124 126 137 141 128 125 119 111
313 302 289 280 270 268 275 281 273 271 277 274 269 266 263 263 260 263 265 259 242 225 222 159 136 118 106 111 124 119 109 105 113 112 109 109 114 123 126 116 113 108 119 132 124 108 102 93 93
276 272 269 243 245 255 292 286 257 266 274 277 274 269 261 251 248 245 247 241 223 194 170 171 142 123 120 117 111 96 94 103 109 112 112 110 109 119 126 124 119 114 117 109 97 92 92 93 91
241 251 274 225 219 198 255 283 291 299 278 278 280 278 267 253 249 245 204 197 207 159 142 140 130 125 124 115 98 95 97 93 97 110 114 107 109 116 116 121 121 119 115 103 101 102 96 92 91
237 291 300 297 200 220 240 275 290 285 280 279 284 284 274 266 253 212 154 144 151 131 116 115 96 93 111 110 101 98 99 91 86 92 103 105 109 112 114 114 115 117 111 104 112 102 108 101 92
312 307 306 309 309 307 283 280 288 286 286 285 288 288 280 267 230 125 106 117 120 116 111 111 97 85 102 108 105 100 97 88 83 77 87 99 100 102 108 112 109 112 115 112 112 107 100 106 107
296 293 293 298 311 308 287 292 300 311 300 292 291 294 303 318 96 114 111 103 105 106 117 115 107 102 101 109 113 111 114 105 94 83 81 87 93 97 107 112 112 119 130 130 123 116 111 106 105
274 286 295 304 329 306 285 286 283 306 283 284 303 307 313 330 13 122 120 107 107 105 114 121 119 114 108 103 109 108 112 108 106 97 91 87 88 91 107 116 119 116 126 128 124 120 120 125 121
273 273 298 306 308 272 275 291 236 164 190 173 144 70 334 346 318 143 126 119 114 119 132 131 135 128 115 116 106 96 89 94 92 97 94 92 93 86 90 101 113 119 125 136 138 134 129 146 154
283 323 303 299 306 290 285 296 287 171 197 158 101 67 9 16 15 165 147 141 142 141 134 127 129 125 125 125 127 124 129 130 135 132 118 104 100 94 89 90 93 109 116 126 137 127 128 136 152
285 315 284 278 278 285 262 248 278 185 276 73 90 77 51 43 15 64 146 148 141 134 133 129 131 133 132 137 145 149 159 134 124 118 116 108 102 105 103 99 93 99 113 122 128 125 123 128 144
294 289 266 244 257 273 243 220 283 262 297 72 77 72 54 45 42 72 119 130 132 134 139 140 142 145 146 148 150 166 162 141 136 136 134 131 123 113 119 120 115 114 111 120 136 142 138 137 140
274 307 327 296 232 248 184 207 249 115 74 66 67 73 73 52 65 91 135 142 143 145 152 151 150 154 157 154 156 176 173 159 160 156 156 152 149 145 148 132 133 129 124 126 130 137 147 148 146
247 262 230 270 284 299 259 236 223 113 96 80 67 73 93 84 81 100 128 143 145 149 152 151 159 165 163 159 162 174 175 167 172 170 163 161 158 155 150 146 144 141 140 143 137 133 147 145 146
265 231 283 291 293 282 254 219 168 104 98 92 75 65 76 99 96 104 114 129 142 152 158 162 166 171 173 169 163 163 170 170 170 164 152 152 153 152 153 156 155 151 153 157 159 160 161 151 151
264 300 249 235 276 276 270 243 217 204 192 154 125 89 60 84 87 86 101 116 133 143 151 154 164 173 176 168 165 166 177 176 165 159 165 168 163 157 158 162 165 167 167 166 168 167 163 155 155
210 229 232 246 248 257 282 279 120 137 132 135 121 106 107 95 101 98 100 113 122 126 138 149 162 166 167 168 172 171 175 175 164 166 174 171 165 163 167 172 172 173 172 171 171 174 169 167 167
217 224 208 218 258 246 264 271 84 94 97 99 91 100 109 108 109 104 104 97 109 121 145 156 167 177 178 177 172 178 175 173 176 181 183 176 171 170 171 173 174 180 179 178 180 184 181 183 182
Height
1497 1498 1500 1502 1504 1504 1501 1493 1488 1487 1488 1492 1493 1493 1494 1495 1498 1506 1505 1502 1501 1501 1501 1503 1504 1505 1507 1508 1510 1511 1513 1514 1516 1517 1518 1520 1521 1522 1523 1524 1526 1527 1528 1529 1530 1531 1532 1533 1534
1497 1499 1501 1502 1503 1506 1499 1491 1490 1490 1492 1493 1494 1495 1495 1497 1499 1501 1501 1501 1501 1501 1501 1502 1503 1505 1506 1508 1509 1510 1512 1514 1515 1517 1518 1519 1520 1522 1523 1524 1525 1527 1528 1529 1530 1531 1532 1533 1534
1498 1499 1502 1500 1499 1500 1496 1491 1491 1492 1493 1495 1496 1497 1497 1499 1500 1501 1501 1500 1501 1500 1501 1501 1503 1504 1505 1507 1509 1510 1511 1513 1514 1516 1517 1519 1520 1521 1522 1524 1525 1526 1528 1529 1530 1531 1532 1534 1535
1500 1501 1501 1501 1499 1493 1491 1492 1493 1494 1494 1496 1497 1498 1499 1501 1501 1501 1500 1500 1500 1500 1500 1501 1502 1503 1504 1506 1508 1509 1511 1512 1513 1515 1516 1518 1519 1521 1522 1523 1525 1526 1528 1529 1530 1531 1533 1534 1535
1501 1501 1501 1500 1496 1492 1491 1493 1495 1496 1496 1497 1498 1498 1499 1501 1499 1499 1499 1499 1499 1499 1499 1500 1501 1502 1503 1505 1506 1508 1509 1511 1512 1514 1515 1517 1518 1520 1521 1523 1524 1526 1527 1529 1530 1531 1533 1534 1536
1501 1499 1502 1501 1495 1491 1492 1495 1497 1498 1498 1498 1498 1498 1499 1500 1498 1498 1498 1498 1498 1498 1498 1498 1499 1501 1502 1503 1505 1506 1508 1509 1511 1513 1514 1516 1517 1519 1521 1522 1524 1525 1527 1529 1530 1531 1533 1534 1536
1503 1501 1501 1498 1496 1494 1495 1496 1498 1499 1499 1499 1499 1498 1498 1498 1497 1497 1497 1497 1497 1497 1496 1497 1498 1499 1500 1502 1503 1505 1506 1508 1509 1511 1513 1515 1516 1518 1520 1522 1523 1525 1527 1528 1530 1531 1533 1534 1536
1502 1503 1500 1498 1497 1497 1497 1498 1499 1499 1500 1499 1499 1498 1497 1497 1496 1496 1495 1495 1495 1495 1495 1495 1496 1497 1498 1500 1501 1503 1504 1506 1508 1510 1512 1514 1516 1517 1519 1521 1523 1525 1526 1528 1530 1531 1533 1534 1536
1503 1506 1504 1500 1499 1498 1498 1499 1499 1499 1499 1499 1498 1497 1497 1495 1495 1494 1494 1494 1493 1493 1493 1494 1494 1495 1496 1498 1499 1501 1503 1505 1507 1509 1511 1513 1515 1517 1519 1520 1522 1524 1526 1528 1529 1531 1532 1534 1535
1505 1507 1503 1501 1500 1500 1500 1500 1500 1498 1497 1497 1496 1495 1495 1494 1493 1493 1492 1492 1491 1491 1492 1492 1493 1493 1494 1496 1497 1499 1501 1503 1505 1507 1509 1511 1514 1516 1518 1520 1522 1524 1526 1527 1529 1530 1532 1533 1535
1504 1505 1502 1502 1501 1501 1501 1501 1500 1498 1496 1495 1495 1494 1493 1492 1492 1491 1491 1490 1490 1490 1490 1490 1490 1491 1492 1494 1495 1497 1499 1501 1503 1505 1507 1510 1512 1514 1516 1519 1521 1523 1525 1527 1528 1530 1531 1533 1534
1504 1503 1503 1502 1502 1502 1501 1500 1499 1497 1495 1494 1493 1492 1491 1490 1490 1489 1489 1488 1488 1488 1488 1488 1488 1489 1490 1492 1494 1495 1497 1499 1502 1504 1505 1508 1510 1513 1515 1517 1520 1522 1524 1526 1527 1529 1531 1532 1534
1503 1503 1502 1501 1501 1500 1499 1498 1497 1494 1492 1491 1490 1490 1489 1488 1487 1487 1487 1486 1486 1485 1485 1486 1486 1487 1488 1490 1491 1493 1496 1498 1500 1502 1505 1507 1509 1511 1514 1516 1518 1520 1523 1525 1527 1528 1530 1532 1533
1503 1502 1501 1499 1498 1497 1497 1495 1494 1489 1489 1489 1487 1486 1486 1485 1485 1485 1484 1484 1484 1483 1483 1483 1484 1485 1486 1488 1489 1491 1494 1496 1499 1501 1503 1505 1508 1510 1513 1514 1517 1519 1521 1523 1525 1527 1529 1530 1532
1502 1501 1498 1496 1495 1494 1495 1492 1489 1486 1486 1485 1484 1483 1483 1482 1482 1482 1482 1481 1481 1481 1481 1481 1482 1483 1484 1486 1487 1489 1492 1495 1497 1499 1502 1503 1506 1508 1511 1513 1515 1518 1520 1522 1524 1526 1527 1529 1531
1500 1500 1499 1492 1492 1492 1497 1494 1485 1484 1483 1482 1482 1481 1480 1480 1479 1479 1479 1478 1479 1479 1479 1480 1480 1481 1483 1484 1486 1488 1491 1493 1495 1498 1500 1502 1504 1507 1510 1512 1514 1516 1518 1520 1522 1524 1526 1527 1529
1499 1500 1496 1492 1489 1489 1492 1490 1484 1482 1481 1480 1479 1479 1478 1478 1477 1477 1476 1476 1476 1476 1477 1478 1479 1480 1481 1483 1485 1487 1490 1492 1494 1495 1498 1500 1503 1505 1508 1510 1512 1515 1517 1519 1521 1523 1524 1526 1527
1502 1499 1495 1493 1488 1488 1489 1486 1481 1479 1478 1478 1477 1477 1476 1476 1475 1475 1474 1474 1474 1475 1476 1477 1477 1479 1480 1482 1483 1485 1488 1491 1493 1495 1497 1499 1502 1504 1506 1509 1511 1513 1516 1518 1519 1521 1523 1525 1526
1500 1499 1496 1491 1487 1488 1487 1483 1479 1477 1476 1476 1475 1475 1474 1474 1474 1473 1473 1473 1473 1474 1475 1475 1476 1478 1479 1481 1481 1484 1487 1489 1492 1494 1496 1498 1500 1503 1505 1507 1509 1512 1514 1516 1518 1520 1521 1523 1525
1498 1498 1494 1489 1486 1486 1484 1481 1476 1474 1474 1474 1474 1474 1473 1473 1472 1472 1472 1472 1472 1472 1474 1474 1475 1476 1478 1480 1481 1483 1486 1488 1491 1493 1495 1497 1499 1501 1504 1506 1508 1510 1512 1514 1516 1518 1520 1521 1523
1495 1497 1495 1493 1488 1483 1483 1480 1474 1472 1472 1472 1473 1473 1472 1472 1471 1471 1471 1471 1471 1472 1473 1473 1475 1476 1477 1479 1480 1482 1485 1488 1489 1491 1493 1495 1497 1500 1503 1505 1506 1508 1510 1512 1514 1516 1518 1519 1521
1495 1491 1492 1492 1493 1491 1486 1491 1476 1471 1470 1470 1471 1471 1471 1471 1470 1470 1470 1470 1470 1471 1472 1473 1474 1475 1477 1479 1481 1482 1484 1487 1488 1490 1492 1494 1496 1498 1501 1503 1505 1507 1508 1510 1512 1514 1516 1517 1519
1493 1491 1491 1490 1492 1492 1485 1488 1479 1470 1470 1470 1469 1470 1470 1469 1469 1469 1469 1469 1470 1470 1471 1472 1474 1475 1477 1478 1480 1482 1484 1486 1488 1489 1491 1493 1495 1497 1499 1501 1503 1505 1506 1508 1510 1512 1514 1515 1517
1492 1491 1488 1489 1492 1495 1483 1487 1480 1472 1468 1468 1468 1468 1468 1468 1468 1468 1468 1468 1469 1469 1471 1472 1473 1474 1475 1477 1478 1481 1483 1485 1486 1488 1490 1492 1494 1496 1498 1500 1502 1503 1504 1506 1508 1510 1511 1513 1515
1493 1496 1498 1496 1495 1489 1477 1481 1478 1468 1465 1466 1467 1468 1468 1468 1467 1467 1467 1467 1468 1469 1470 1471 1472 1473 1474 1476 1478 1480 1482 1484 1485 1487 1489 1491 1493 1494 1496 1498 1500 1501 1503 1504 1506 1507 1509 1510 1512
1493 1493 1502 1502 1494 1485 1478 1480 1472 1465 1465 1466 1467 1467 1467 1467 1467 1467 1467 1467 1467 1468 1469 1470 1472 1473 1474 1475 1477 1479 1481 1483 1485 1487 1488 1490 1491 1493 1495 1496 1498 1499 1501 1503 1504 1505 1507 1508 1509
1491 1493 1491 1496 1492 1492 1481 1470 1468 1464 1465 1466 1466 1466 1466 1467 1467 1467 1466 1466 1467 1467 1468 1470 1471 1472 1473 1475 1476 1478 1480 1482 1484 1485 1487 1488 1490 1491 1493 1494 1496 1497 1499 1500 1502 1503 1504 1505 1506
1490 1490 1494 1496 1496 1491 1477 1470 1472 1467 1466 1465 1465 1466 1466 1466 1466 1466 1466 1466 1467 1467 1468 1469 1470 1471 1473 1474 1475 1477 1479 1481 1482 1483 1484 1486 1487 1489 1490 1492 1493 1495 1496 1498 1499 1500 1501 1502 1503
1491 1490 1490 1490 1488 1492 1485 1477 1463 1463 1463 1464 1465 1465 1465 1466 1466 1466 1466 1466 1467 1467 1468 1468 1469 1470 1471 1472 1474 1475 1477 1478 1479 1480 1482 1483 1485 1486 1487 1489 1490 1492 1493 1495 1496 1497 1498 1499 1500
1483 1483 1486 1493 1489 1484 1486 1480 1461 1461 1462 1463 1464 1464 1464 1465 1465 1465 1466 1466 1466 1466 1467 1467 1468 1469 1470 1471 1472 1473 1475 1476 1477 1478 1479 1481 1482 1483 1485 1486 1487 1489 1490 1491 1492 1494 1495 1496 1497